FW0717 Weather Reports


time (UTC)temp
F
wind
direction
speed
knots
gust
knots
rain 1hr
in
rain 24hr
in
rain mn
in
humidity
%
barometer
mb
20260510033504 70 279 1.7 2.6 0.39 0.40 0.40 90 1011.0
20260510033004 71 279 0.9 2.6 0.40 0.40 0.40 89 1011.1
20260510032505 71 279 0.0 2.6 0.40 0.40 0.40 89 1011.2
20260510031504 71 278 0.0 3.5 0.40 0.40 0.40 88 1011.1
20260510031004 71 278 0.0 6.1 0.40 0.40 0.40 88 1011.2
20260510030505 71 139 1.7 10.4 0.38 0.38 0.38 87 1011.1
20260510030006 71 132 3.5 10.4 0.34 0.34 0.34 87 1011.0
20260510025504 72 128 3.5 5.2 0.23 0.23 0.23 86 1011.1
20260510025005 72 144 1.7 8.7 0.06 0.06 0.06 85 1011.3
20260510024505 73 142 7.0 9.6 0.04 0.04 0.04 84 1011.4
20260510024004 73 155 5.2 10.4 0.02 0.02 0.02 83 1011.4
20260510023504 74 139 1.7 11.3 0.01 0.01 0.01 82 1011.1
20260510023005 74 96 3.5 11.3 0.00 0.00 0.00 82 1010.9
20260510022004 75 43 3.5 14.8 0.00 0.00 0.00 83 1010.5
20260510021504 76 107 5.2 14.8 0.00 0.00 0.00 83 1010.0
20260510021004 77 64 0.9 8.7 0.00 0.00 0.00 82 1009.7
20260510020505 78 142 1.7 6.1 0.00 0.00 0.00 81 1009.4
20260510020007 79 142 1.7 6.1 0.00 0.00 0.00 78 1009.1
20260510014505 81 231 0.9 3.5 0.00 0.00 0.00 72 1008.6
20260510014004 82 231 0.0 3.5 0.00 0.00 0.00 71 1008.6
20260510013005 83 233 1.7 8.7 0.00 0.00 0.00 69 1008.5
20260510012505 84 228 2.6 8.7 0.00 0.00 0.00 70 1008.4
20260510012003 84 137 0.9 7.0 0.00 0.00 0.00 71 1008.3
20260510011504 84 152 7.0 7.0 0.00 0.00 0.00 72 1008.1
20260510011004 84 344 0.0 0.0 0.00 0.00 0.00 74 1007.9
20260510010505 84 344 0.0 0.0 0.00 0.00 0.00 74 1007.8
20260510010006 84 344 0.0 0.0 0.00 0.00 0.00 74 1007.9
20260510005504 84 344 0.0 0.0 0.00 0.00 0.00 74 1007.8
20260510005004 84 344 0.0 0.0 0.00 0.00 0.00 74 1007.7
20260510004505 84 344 0.0 0.0 0.00 0.00 0.00 74 1007.8
20260510004004 84 344 0.0 0.9 0.00 0.00 0.00 75 1007.5
20260510003503 84 344 0.0 0.9 0.00 0.00 0.00 75 1007.3
20260510002505 84 344 0.0 1.7 0.00 0.00 0.00 74 1007.3
20260510002006 84 344 0.9 0.9 0.00 0.00 0.00 74 1007.4
20260510001503 84 344 0.0 0.9 0.00 0.00 0.00 74 1007.4
20260510001006 84 344 0.0 1.7 0.00 0.00 0.00 74 1007.5
20260510000506 84 344 0.9 1.7 0.00 0.00 0.00 74 1007.2
20260510000008 84 344 0.0 0.9 0.00 0.00 0.00 74 1007.2
20260509235505 85 343 0.0 0.9 0.00 0.00 0.00 74 1007.3
20260509234506 85 343 0.0 1.7 0.00 0.00 0.00 73 1007.2
20260509234005 85 343 0.9 0.9 0.00 0.00 0.00 73 1007.2
20260509233505 85 63 0.0 0.9 0.00 0.00 0.00 72 1007.3
20260509232005 85 77 0.0 1.7 0.00 0.00 0.00 72 1007.2
20260509231505 86 77 0.9 1.7 0.00 0.00 0.00 71 1007.3
20260509231006 85 77 0.0 3.5 0.00 0.00 0.00 71 1007.2
20260509230505 86 77 0.9 3.5 0.00 0.00 0.00 71 1007.1
20260509225505 86 77 0.0 2.6 0.00 0.00 0.00 69 1007.0
20260509224506 87 77 0.9 3.5 0.00 0.00 0.00 67 1007.1
20260509224005 88 77 1.7 4.3 0.00 0.00 0.00 66 1007.0
20260509223505 88 36 1.7 3.5 0.00 0.00 0.00 66 1007.1
20260509222006 88 134 1.7 1.7 0.00 0.00 0.00 68 1006.9
20260509221506 88 134 0.0 3.5 0.00 0.00 0.00 65 1006.8
20260509221007 88 134 2.6 3.5 0.00 0.00 0.00 68 1006.8
20260509220504 87 143 0.9 2.6 0.00 0.00 0.00 67 1006.8
20260509220008 88 144 0.9 1.7 0.00 0.00 0.00 67 1006.9
20260509215505 88 123 0.9 3.5 0.00 0.00 0.00 65 1006.9
20260509215006 88 123 1.7 5.2 0.00 0.00 0.00 66 1006.9
20260509214505 88 126 1.7 3.5 0.00 0.00 0.00 65 1006.9
20260509214005 89 127 0.9 6.1 0.00 0.00 0.00 65 1007.0
20260509212505 89 163 0.9 2.6 0.00 0.00 0.00 63 1006.9
20260509212005 89 162 0.0 2.6 0.00 0.00 0.00 64 1006.9
20260509211505 89 162 0.0 2.6 0.00 0.00 0.00 64 1007.0
20260509211006 89 161 1.7 2.6 0.00 0.00 0.00 64 1007.1
20260509210505 89 159 1.7 4.3 0.00 0.00 0.00 64 1007.2
20260509210006 89 159 3.5 4.3 0.00 0.00 0.00 64 1007.2
20260509205505 89 159 0.9 2.6 0.00 0.00 0.00 64 1007.2
20260509205006 89 159 0.0 4.3 0.00 0.00 0.00 67 1007.4
20260509204505 88 157 1.7 4.3 0.00 0.00 0.00 67 1007.5
20260509204005 88 160 1.7 4.3 0.00 0.00 0.00 66 1007.4
20260509203505 89 159 0.9 2.6 0.00 0.00 0.00 67 1007.4
20260509203006 88 159 1.7 2.6 0.00 0.00 0.00 66 1007.4
20260509202504 88 158 0.9 1.7 0.00 0.00 0.00 67 1007.6
20260509202005 87 271 0.9 2.6 0.00 0.00 0.00 64 1007.6
20260509201505 88 271 0.0 6.1 0.00 0.00 0.00 65 1007.7
20260509201006 89 271 0.9 6.1 0.00 0.00 0.00 66 1007.8
20260509200506 89 272 2.6 5.2 0.00 0.00 0.00 66 1008.0
20260509195505 88 271 2.6 5.2 0.00 0.00 0.00 68 1008.1
20260509195005 87 192 0.9 3.5 0.00 0.00 0.00 69 1008.1
20260509194506 87 192 1.7 3.5 0.00 0.00 0.00 68 1008.1
20260509194005 86 192 0.0 3.5 0.00 0.00 0.00 70 1008.2
20260509193505 86 195 0.0 3.5 0.00 0.00 0.00 71 1008.3
20260509193005 87 250 0.9 3.5 0.00 0.00 0.00 70 1008.4
20260509192013 87 279 1.7 3.5 0.00 0.00 0.00 69 1008.4
20260509191505 86 292 2.6 3.5 0.00 0.00 0.00 71 1008.5
20260509191005 85 296 0.9 2.6 0.00 0.00 0.00 72 1008.5
20260509190506 85 5 0.0 1.7 0.00 0.00 0.00 73 1008.5
20260509190008 85 9 1.7 2.6 0.00 0.00 0.00 74 1008.5
20260509185504 85 337 0.9 2.6 0.00 0.00 0.00 75 1008.6
20260509185005 85 337 1.7 3.5 0.00 0.00 0.00 74 1008.8
20260509184506 84 338 2.6 3.5 0.00 0.00 0.00 75 1008.9
20260509183505 84 338 0.0 3.5 0.00 0.00 0.00 74 1009.0
20260509183005 84 338 2.6 3.5 0.00 0.00 0.00 75 1009.1
20260509182005 84 237 1.7 4.3 0.00 0.00 0.00 76 1009.2
20260509181505 84 237 0.0 4.3 0.00 0.00 0.00 75 1009.3
20260509181006 84 238 0.9 4.3 0.00 0.00 0.00 76 1009.4
20260509180506 83 173 1.7 3.5 0.00 0.00 0.00 76 1009.4
20260509180007 83 173 0.0 4.3 0.00 0.00 0.00 76 1009.4
20260509175005 83 245 0.0 2.6 0.00 0.00 0.00 77 1009.7
20260509174506 83 245 0.0 2.6 0.00 0.00 0.00 77 1009.6
20260509174005 83 248 0.9 4.3 0.00 0.00 0.00 77 1009.7
20260509173005 84 249 4.3 4.3 0.00 0.00 0.00 75 1009.7
20260509172505 84 194 0.9 4.3 0.00 0.00 0.00 76 1009.5
20260509171504 83 196 0.0 2.6 0.00 0.00 0.00 78 1009.6
20260509171005 83 196 0.0 2.6 0.00 0.00 0.00 77 1009.5
20260509170007 82 197 0.9 3.5 0.00 0.00 0.00 81 1009.5
20260509165005 81 137 0.0 6.1 0.00 0.00 0.00 83 1009.5
20260509164506 80 138 0.9 4.3 0.00 0.00 0.00 84 1009.5
20260509164005 80 138 0.9 2.6 0.00 0.00 0.00 84 1009.5
20260509163005 79 138 0.0 0.0 0.00 0.00 0.00 85 1009.6
20260509162506 79 138 0.0 0.0 0.00 0.00 0.00 85 1009.8
20260509162004 79 138 0.0 0.0 0.00 0.00 0.00 85 1009.8
20260509161505 79 138 0.0 0.0 0.00 0.00 0.00 85 1009.7
20260509160506 79 191 0.0 2.6 0.00 0.00 0.00 86 1009.8
20260509155504 79 171 1.7 3.5 0.00 0.00 0.00 88 1010.0
20260509155005 78 140 0.0 0.0 0.00 0.00 0.00 89 1010.0
20260509154506 78 144 0.0 0.0 0.00 0.00 0.00 90 1010.1
20260509154005 78 144 0.0 0.0 0.00 0.00 0.00 91 1010.0
20260509153506 77 150 0.0 0.0 0.00 0.00 0.00 92 1010.1
20260509153005 77 150 0.0 0.0 0.00 0.00 0.00 93 1010.2
20260509152505 77 150 0.0 0.0 0.00 0.00 0.00 93 1010.2
20260509151504 76 273 0.0 0.0 0.00 0.00 0.00 94 1010.1
20260509151005 76 297 0.0 0.0 0.00 0.00 0.00 94 1010.1
20260509150007 76 296 0.0 0.0 0.00 0.00 0.00 95 1010.0
20260509145504 76 296 0.0 0.0 0.00 0.00 0.00 95 1009.9
20260509145005 75 296 0.0 0.0 0.00 0.00 0.00 95 1009.8
20260509144506 75 286 0.0 0.0 0.00 0.00 0.00 95 1009.9
20260509144004 75 306 0.0 0.0 0.00 0.00 0.00 95 1009.8
20260509143504 75 306 0.0 0.0 0.00 0.00 0.00 95 1009.7
20260509143005 75 306 0.0 0.0 0.00 0.00 0.00 95 1009.7
20260509142506 75 69 0.0 0.0 0.00 0.00 0.00 95 1009.6
20260509142004 75 178 0.0 0.0 0.00 0.00 0.00 96 1009.5
20260509141504 75 176 0.0 0.0 0.00 0.00 0.00 96 1009.4
20260509141005 75 176 0.0 0.0 0.00 0.00 0.00 96 1009.3
20260509140505 74 176 0.0 0.0 0.00 0.00 0.00 95 1009.4
20260509135005 74 130 0.0 0.0 0.00 0.00 0.00 95 1009.5
20260509134505 74 130 0.0 0.0 0.00 0.00 0.00 96 1009.7
20260509134004 74 130 0.0 0.0 0.00 0.00 0.00 96 1009.7
20260509133504 74 130 0.0 0.0 0.00 0.00 0.00 96 1009.9
20260509133005 74 130 0.0 0.0 0.00 0.00 0.00 96 1009.9
20260509132505 74 130 0.0 0.0 0.00 0.00 0.00 96 1009.9
20260509131504 74 130 0.0 0.0 0.00 0.00 0.00 96 1010.1
20260509131004 74 130 0.0 0.0 0.00 0.00 0.00 96 1010.1
20260509130505 74 130 0.0 0.0 0.00 0.00 0.00 96 1009.9
20260509125504 74 130 0.0 0.0 0.00 0.00 0.00 96 1009.9
20260509125005 74 130 0.0 0.0 0.00 0.00 0.00 96 1010.1
20260509124503 73 130 0.0 0.0 0.00 0.00 0.00 96 1010.0
20260509124004 73 130 0.0 0.0 0.00 0.00 0.00 96 1009.9
20260509123503 73 130 0.0 0.0 0.00 0.00 0.00 96 1009.9
20260509123005 73 130 0.0 0.0 0.00 0.00 0.00 96 1010.0
20260509122507 73 130 0.0 0.0 0.00 0.00 0.00 96 1010.0
20260509122006 73 130 0.0 0.0 0.00 0.00 0.00 95 1009.9
20260509121506 73 130 0.0 0.0 0.00 0.00 0.00 95 1009.9
20260509121007 73 130 0.0 0.0 0.00 0.00 0.00 95 1009.7
20260509120506 73 130 0.0 0.0 0.00 0.00 0.00 95 1009.3
20260509120009 73 131 0.0 0.0 0.00 0.00 0.00 95 1009.2
20260509115506 73 131 0.0 0.0 0.00 0.00 0.00 95 1009.2
20260509114507 73 131 0.0 0.0 0.00 0.00 0.00 95 1009.3
20260509114006 73 131 0.0 0.0 0.00 0.00 0.00 95 1009.1
20260509113505 73 131 0.0 2.6 0.00 0.00 0.00 95 1009.2
20260509113007 73 131 0.9 2.6 0.00 0.00 0.00 95 1009.1
20260509112007 73 131 1.7 2.6 0.00 0.00 0.00 95 1009.0
20260509111006 73 130 0.0 0.0 0.00 0.00 0.00 95 1009.4
20260509110506 73 130 0.0 0.9 0.00 0.00 0.00 95 1009.5
20260509110008 73 130 0.0 1.7 0.00 0.00 0.00 95 1009.3
20260509105006 73 131 1.7 2.6 0.00 0.00 0.00 95 1009.6
20260509104507 73 131 0.9 2.6 0.00 0.00 0.00 95 1009.7
20260509103506 73 131 0.0 0.0 0.00 0.00 0.00 95 1009.6
20260509103006 73 131 0.0 0.0 0.00 0.00 0.00 95 1009.5
20260509102507 73 131 0.0 0.9 0.00 0.00 0.00 95 1009.4
20260509102006 73 131 0.0 2.6 0.00 0.00 0.00 95 1009.2
20260509101506 73 131 0.9 2.6 0.00 0.00 0.00 95 1009.0
20260509101007 73 131 0.0 2.6 0.00 0.00 0.00 95 1008.9
20260509100008 72 132 0.0 0.0 0.00 0.00 0.00 95 1008.5
20260509095006 72 132 0.0 0.0 0.00 0.00 0.00 95 1008.5
20260509094511 72 132 0.0 0.0 0.00 0.00 0.00 95 1008.6
20260509094006 73 132 0.0 0.0 0.00 0.00 0.00 95 1008.7
20260509093505 73 132 0.0 0.0 0.00 0.00 0.00 95 1008.8
20260509093006 73 132 0.0 0.0 0.00 0.00 0.00 95 1008.9
20260509091505 73 132 0.0 0.0 0.00 0.00 0.00 95 1009.1
20260509091006 73 132 0.0 0.0 0.00 0.00 0.00 95 1008.9
20260509090507 73 132 0.0 1.7 0.00 0.00 0.00 95 1009.1
20260509090010 73 132 0.9 2.6 0.00 0.00 0.00 95 1009.2
20260509085505 73 132 0.9 2.6 0.00 0.00 0.00 95 1009.3
20260509085007 73 131 0.0 2.6 0.00 0.00 0.00 94 1009.3
20260509084506 73 131 0.9 0.9 0.00 0.00 0.00 94 1009.3
20260509084005 73 131 0.0 0.0 0.00 0.00 0.00 94 1009.2
20260509082505 73 131 0.0 1.7 0.00 0.00 0.00 94 1009.1
20260509082006 73 131 0.0 1.7 0.00 0.00 0.00 94 1009.2
20260509081005 73 131 0.0 0.9 0.00 0.00 0.00 94 1009.1
20260509080505 73 131 0.0 1.7 0.00 0.00 0.00 94 1009.0
20260509080008 73 131 0.0 3.5 0.00 0.00 0.00 94 1008.9
20260509075507 73 131 0.0 3.5 0.00 0.00 0.00 94 1009.0
20260509075005 73 133 0.9 2.6 0.00 0.00 0.00 94 1009.0
20260509074505 73 133 0.9 2.6 0.00 0.00 0.00 94 1009.1
20260509073506 73 133 0.9 2.6 0.00 0.00 0.00 94 1009.1
20260509073005 73 133 0.0 1.7 0.00 0.00 0.00 94 1009.1
20260509072505 73 133 0.9 1.7 0.00 0.00 0.00 94 1009.2
20260509072008 73 133 0.0 2.6 0.00 0.00 0.00 94 1009.3
20260509071507 73 133 0.9 2.6 0.00 0.00 0.00 94 1009.2
20260509071005 73 133 0.0 0.0 0.00 0.00 0.00 94 1009.3
20260509070505 73 133 0.0 0.0 0.00 0.00 0.00 94 1009.4
20260509070008 73 133 0.0 0.0 0.00 0.00 0.00 94 1009.4
20260509065506 73 133 0.0 0.0 0.00 0.00 0.00 94 1009.5
20260509065005 73 133 0.0 0.0 0.00 0.00 0.00 94 1009.5
20260509064506 73 133 0.0 0.0 0.00 0.00 0.00 94 1009.4
20260509064006 73 133 0.0 0.0 0.00 0.00 0.00 94 1009.4
20260509063507 73 133 0.0 0.0 0.00 0.00 0.00 94 1009.4
20260509063006 73 133 0.0 0.0 0.00 0.00 0.00 94 1009.4
20260509062505 73 133 0.0 0.0 0.00 0.00 0.00 94 1009.4
20260509062006 73 133 0.0 0.0 0.00 0.00 0.00 94 1009.5
20260509061506 73 133 0.0 0.0 0.00 0.00 0.00 94 1009.7
20260509061006 73 133 0.0 0.0 0.00 0.00 0.00 94 1009.6
20260509060505 73 133 0.0 0.0 0.00 0.00 0.00 94 1009.6
20260509060008 73 133 0.0 2.6 0.00 0.00 0.00 94 1009.6
20260509055507 73 133 0.9 2.6 0.00 0.00 0.00 94 1009.6
20260509054508 73 133 0.0 1.7 0.00 0.00 0.00 94 1009.8
20260509054006 73 133 0.9 1.7 0.00 0.00 0.00 94 1009.8
20260509053506 73 133 0.0 2.6 0.00 0.00 0.00 94 1009.8
20260509053005 73 133 0.9 2.6 0.00 0.00 0.00 94 1009.7
20260509052507 72 133 0.9 1.7 0.00 0.00 0.00 93 1009.8
20260509052006 72 133 0.0 2.6 0.00 0.00 0.00 93 1009.8
20260509051509 72 133 2.6 2.6 0.00 0.00 0.00 93 1009.7
20260509051005 72 133 1.7 3.5 0.00 0.00 0.00 93 1009.6
20260509050505 72 133 2.6 4.3 0.00 0.00 0.00 93 1009.5
20260509050008 72 133 1.7 4.3 0.00 0.00 0.00 93 1009.8
20260509045506 72 134 0.9 3.5 0.00 0.00 0.00 93 1009.8
20260509045005 72 134 0.9 3.5 0.00 0.00 0.00 93 1009.8
20260509044504 72 115 0.9 5.2 0.00 0.00 0.00 93 1009.8
20260509043505 72 92 0.0 5.2 0.00 0.00 0.00 93 1009.8
20260509043006 72 92 0.0 5.2 0.00 0.00 0.00 93 1009.6
20260509042504 72 90 1.7 2.6 0.00 0.00 0.00 93 1009.6
20260509042005 72 90 0.0 6.1 0.00 0.00 0.00 93 1009.6
20260509041506 72 90 2.6 6.1 0.00 0.00 0.00 93 1009.7
20260509041004 72 94 1.7 5.2 0.00 0.00 0.00 93 1009.8
20260509040504 72 94 2.6 5.2 0.00 0.00 0.00 93 1009.8
20260509040007 72 94 1.7 3.5 0.00 0.00 0.00 93 1009.7
20260509035505 72 94 0.0 3.5 0.00 0.00 0.00 93 1009.6
20260509034504 72 94 0.0 3.5 0.00 0.00 0.00 93 1009.6
20260509034005 72 94 1.7 3.5 0.00 0.00 0.00 93 1009.6